�搅�E���B���j�^�v������
Date,Time,�搅(cps),���B(cps),���J
2023/09/26,00:00,7.0,-,��
2023/09/26,00:10,7.0,-,�L
2023/09/26,00:20,7.0,-,�L
2023/09/26,00:30,7.0,-,�L
2023/09/26,00:40,7.1,-,�L
2023/09/26,00:50,7.0,-,�L
2023/09/26,01:00,7.2,-,�L
2023/09/26,01:10,6.9,-,�L
2023/09/26,01:20,7.1,-,�L
2023/09/26,01:30,7.0,-,��
2023/09/26,01:40,6.9,-,��
2023/09/26,01:50,7.1,-,��
2023/09/26,02:00,6.9,-,�L
2023/09/26,02:10,7.1,-,��
2023/09/26,02:20,7.0,-,�L
2023/09/26,02:30,7.0,-,��
2023/09/26,02:40,6.8,-,�L
2023/09/26,02:50,6.9,-,��
2023/09/26,03:00,6.9,-,��
2023/09/26,03:10,6.9,-,��
2023/09/26,03:20,7.1,-,��
2023/09/26,03:30,7.0,-,��
2023/09/26,03:40,7.0,-,��
2023/09/26,03:50,7.1,-,��
2023/09/26,04:00,7.0,-,��
2023/09/26,04:10,7.1,-,��
2023/09/26,04:20,7.0,-,��
2023/09/26,04:30,7.1,-,��
2023/09/26,04:40,7.1,-,�L
2023/09/26,04:50,7.3,-,�L
2023/09/26,05:00,7.2,-,��
2023/09/26,05:10,7.1,-,��
2023/09/26,05:20,7.1,-,��
2023/09/26,05:30,7.0,-,��
2023/09/26,05:40,6.9,-,��
2023/09/26,05:50,7.1,-,��
2023/09/26,06:00,7.1,-,��
2023/09/26,06:10,6.9,-,��
2023/09/26,06:20,7.3,-,��
2023/09/26,06:30,7.2,-,��
2023/09/26,06:40,7.2,-,��
2023/09/26,06:50,7.0,-,��
2023/09/26,07:00,7.1,-,��
2023/09/26,07:10,7.1,-,��
2023/09/26,07:20,7.2,-,��
2023/09/26,07:30,7.2,-,��
2023/09/26,07:40,7.1,-,��
2023/09/26,07:50,7.1,-,��
2023/09/26,08:00,7.2,-,��
2023/09/26,08:10,7.0,-,��
2023/09/26,08:20,6.9,-,��
2023/09/26,08:30,7.1,-,��
2023/09/26,08:40,7.1,-,��
2023/09/26,08:50,7.2,-,��
2023/09/26,09:00,7.1,-,��
2023/09/26,09:10,7.1,-,��
2023/09/26,09:20,7.2,-,�L
2023/09/26,09:30,7.3,-,�L
2023/09/26,09:40,7.2,-,�L
2023/09/26,09:50,7.2,-,��
2023/09/26,10:00,7.1,-,��
2023/09/26,10:10,7.2,-,��
2023/09/26,10:20,7.1,-,��
2023/09/26,10:30,7.1,-,��
2023/09/26,10:40,7.1,-,��
2023/09/26,10:50,7.2,-,��
2023/09/26,11:00,7.2,-,��
2023/09/26,11:10,7.0,-,��
2023/09/26,11:20,7.1,-,��
2023/09/26,11:30,7.2,-,��
2023/09/26,11:40,7.1,-,��
2023/09/26,11:50,7.2,-,��
2023/09/26,12:00,7.3,-,��
2023/09/26,12:10,7.2,-,��
2023/09/26,12:20,7.1,-,��
2023/09/26,12:30,7.4,-,��
2023/09/26,12:40,7.4,-,��
2023/09/26,12:50,7.3,-,��
2023/09/26,13:00,7.1,-,��
2023/09/26,13:10,7.4,-,��
2023/09/26,13:20,7.4,-,��
2023/09/26,13:30,7.4,-,��
2023/09/26,13:40,7.2,-,��
2023/09/26,13:50,7.4,-,��
2023/09/26,14:00,7.3,-,��
2023/09/26,14:10,7.4,-,��
2023/09/26,14:20,7.3,-,�L
2023/09/26,14:30,7.5,-,�L
2023/09/26,14:40,7.2,-,��
2023/09/26,14:50,7.3,-,��
2023/09/26,15:00,7.3,-,��
2023/09/26,15:10,7.3,-,��
2023/09/26,15:20,7.3,-,��
2023/09/26,15:30,7.5,-,��
2023/09/26,15:40,7.4,-,��
2023/09/26,15:50,7.3,-,��
2023/09/26,16:00,7.2,-,��
2023/09/26,16:10,7.2,-,��
2023/09/26,16:20,7.1,-,��
2023/09/26,16:30,7.2,-,��
2023/09/26,16:40,7.3,-,��
2023/09/26,16:50,7.2,-,��
2023/09/26,17:00,7.1,-,��
2023/09/26,17:10,7.0,-,��
2023/09/26,17:20,7.1,-,��
2023/09/26,17:30,7.2,-,��
2023/09/26,17:40,7.1,-,��
2023/09/26,17:50,7.3,-,��
2023/09/26,18:00,7.2,-,��
2023/09/26,18:10,7.0,-,��
2023/09/26,18:20,7.4,-,��
2023/09/26,18:30,7.1,-,��
2023/09/26,18:40,7.0,-,��
2023/09/26,18:50,7.1,-,��
2023/09/26,19:00,7.0,-,��
2023/09/26,19:10,7.1,-,��
2023/09/26,19:20,7.0,-,��
2023/09/26,19:30,7.0,-,��
2023/09/26,19:40,7.0,-,��
2023/09/26,19:50,7.0,-,��
2023/09/26,20:00,6.9,-,��
2023/09/26,20:10,6.9,-,��
2023/09/26,20:20,7.0,-,��
2023/09/26,20:30,7.0,-,��
2023/09/26,20:40,7.1,-,��
2023/09/26,20:50,6.8,-,��
2023/09/26,21:00,6.9,-,��
2023/09/26,21:10,6.9,-,��
2023/09/26,21:20,6.9,-,��
2023/09/26,21:30,7.0,-,��
2023/09/26,21:40,7.0,-,��
2023/09/26,21:50,7.0,-,��
2023/09/26,22:00,6.9,-,��
2023/09/26,22:10,6.8,-,��
2023/09/26,22:20,6.8,-,��
2023/09/26,22:30,7.0,-,��
2023/09/26,22:40,6.9,-,��
2023/09/26,22:50,6.8,-,��
2023/09/26,23:00,6.8,-,�L
2023/09/26,23:10,6.8,-,��
2023/09/26,23:20,6.9,-,��
2023/09/26,23:30,6.9,-,��
2023/09/26,23:40,6.8,-,��
2023/09/26,23:50,7.0,-,��
